Weather Service Report


119 
ASUS45 KSLC 250610
RWRUT 

UTAH REGIONAL WEATHER ROUNDUP
NATIONAL WEATHER SERVICE SALT LAKE CITY UT
1200 AM MDT FRI MAY 25 2018

UTZ001>011-023>025-250700-

NORTHERN UTAH
  
CITY           SKY/WX    TMP DP  RH WIND       PRES   REMARKS
BRIGHAM CITY   CLEAR     66  44  45 W5        30.03S                  
HILL AFB       CLEAR     66  40  37 E13       30.04S                  
LOGAN          CLEAR     54  49  83 SW5       30.07S                  
OGDEN          CLEAR     64  40  41 S7        30.02S                  
SALT LAKE CITY NOT AVBL                                               
TOOELE VALLEY  CLEAR     55  43  62 S9        30.03S                  
WENDOVER       CLEAR     72  37  28 NE10      29.99S                  
HEBER CITY       N/A     50  37  62 CALM      30.11S                  
WEST JORDAN    CLEAR     64  45  50 CALM      30.04S                  

$$

UTZ011>015-024>027-250700-

CENTRAL/NORTHEAST UTAH
  
CITY           SKY/WX    TMP DP  RH WIND       PRES   REMARKS
PROVO AIRPORT  CLEAR     61  50  67 S3        30.03F                  
MOAB/CANYONLAN CLEAR     65  24  21 CALM      30.01S                  
DELTA          CLEAR     63  30  29 E7        30.02S                  
PRICE          CLEAR     59  24  26 N9        30.11S                  
ROOSEVELT      CLEAR     54  41  62 W6        30.09F                  
VERNAL         CLEAR     60  37  42 W5        30.09R                  

$$

UTZ013>016-019>022-027-250700-

SOUTHERN UTAH
  
CITY           SKY/WX    TMP DP  RH WIND       PRES   REMARKS
BRYCE CANYON   CLEAR     41  20  43 W8        30.25F                  
CEDAR CITY     CLEAR     59  24  26 SE7       30.11S                  
MILFORD        CLEAR     57  26  30 SW6       30.06R                  
ST GEORGE      CLEAR     74  29  19 SE9       29.97R                  
HANKSVILLE     CLEAR     63  14  15 E5        30.03S                  
BLANDING         N/A     58  22  25 N10       30.20S                  

$$

REGIONAL REPORTS     COLORADO/ARIZONA
  
CITY           SKY/WX    TMP DP  RH WIND       PRES   REMARKS
CRAIG, CO      CLEAR     44  38  79 CALM      30.18S                  
GRAND JUNCTION CLEAR     66  23  19 E7        30.06R                  
RIFLE, CO      CLEAR     59  26  28 SW3       30.14R                  
MONTROSE, CO     N/A     61  26  26 SE14      30.16                   
CORTEZ, CO     CLEAR     52  20  28 E5        30.17R                  
COLORADO CITY    N/A     54  28  37 SE3       30.13R                  
PAGE, AZ       CLEAR     78  18  10 SW8       30.00S                  
GRAND CANYON   CLEAR     53  17  24 CALM      30.25R                  
KINGMAN, AZ      N/A    N/A N/A N/A MISG      30.03F                  
FLAGSTAFF, AZ  CLEAR     48  21  34 SW3       30.27F                  

$$

REGIONAL REPORTS    NEVADA/IDAHO/WYOMING
  
CITY           SKY/WX    TMP DP  RH WIND       PRES   REMARKS
LAS VEGAS, NV  CLEAR     82  25  12 S7        29.90S                  
ELY, NY        CLEAR     53  27  36 S10       30.12F                  
ELKO, NV       CLEAR     65  45  48 E7        30.01S                  
POCATELLO, ID  PTCLDY    57  49  74 E5        30.07S                  
BURLEY, ID     CLEAR     59  51  75 CALM      30.03R                  
FORT BRIDGER,    N/A     61  35  37 NE6       30.26S                  
EVANSTON, WY   CLEAR     56  38  50 E7        30.23S                  
ROCK SPRINGS,  CLEAR     53  39  59 N7        30.21S                  

$$
  

Return to Home page


Western Regional Climate Center, wrcc@dri.edu